軌道要素
Epoch 2022 Jan. 21.0 TT = JDT 2459600.5
T 2021 Oct. 24.86424 TT Rudenko
q 1.8868215 (2000.0) P Q
n 0.11483157 Peri. 335.21227 +0.37207468 -0.19291696
a 4.1920698 Node 75.11306 +0.92780856 +0.10580473
e 0.5499070 Incl. 69.96226 -0.02704991 +0.97549393
P 8.58
From 279 observations 2021 Oct. 24-2022 Jan. 31, mean residual 0".6.
|